Flag for Germany Weather past 2 weeks in Augsburg, Bavaria, Germany

Now
32 °F

Passing clouds.


Feels Like: 32 °F
Forecast: 30 / 42 °F
Wind: 2 mph from Southeast

Location: Augsburg Airport

Current Time: Mar 5, 2015 at 9:18:31 PM

Latest Report: Mar 5, 2015 at 8:50 PM


Visibility: N/A

Pressure: 30.57 "Hg

Humidity: 80%

Dew point: 27 °F

Location of AugsburgLocation

Historic Weather in Augsburg — Graph

°F

Augsburg temperature yesterday

Maximum temperature yesterday: 43 °F (at 2:50 PM)
Minimum temperature yesterday: 34 °F (at 7:20 AM)
Average temperature yesterday: 39 °F

Past Weeks' High & Low Weather Summary

 TemperatureHumidityPressure
High54 °F (Feb 20, 1:50 PM)100% (Feb 18, 8:20 PM)30.60 "Hg (Feb 18, 8:20 PM)
Low23 °F (Feb 27, 6:50 AM)28% (Feb 20, 2:20 PM)29.47 "Hg (Feb 21, 1:50 PM)
Average37 °F76%30.01 "Hg
* Reported Feb 18 8:20 PM — Mar 5 8:20 PM, Augsburg, Weather by CustomWeather, © 2015

Note: Actual official high and low records may vary slightly from our data, if they occured in-between our weather recording intervals... More about our weather records

Advertising

Augsburg weather history for previous 24 hours

 ConditionsComfort  
Time TempWeatherWind HumidityBarometerVisibility
8:20 PM
Thu, Mar 5
32 °FPassing clouds.2 mph75%30.57 "HgN/A
7:50 PM34 °FPassing clouds.5 mph65%30.57 "HgN/A
7:20 PM34 °FClear.5 mph65%30.57 "Hg10 mi
6:50 PM36 °FPassing clouds.3 mph60%30.57 "HgN/A
6:20 PM36 °FPassing clouds.7 mph60%30.54 "HgN/A
5:50 PM37 °FScattered clouds.9 mph56%30.54 "HgN/A
5:20 PM39 °FScattered clouds.10 mph52%30.51 "HgN/A
4:50 PM39 °FScattered clouds.13 mph52%30.51 "HgN/A
4:20 PM41 °FScattered clouds.14 mph49%30.51 "HgN/A
3:50 PM41 °FScattered clouds.13 mph49%30.51 "HgN/A
3:20 PM39 °FScattered clouds.10 mph52%30.51 "HgN/A
2:50 PM39 °FScattered clouds.9 mph56%30.51 "HgN/A
2:20 PM39 °FScattered clouds.7 mph56%30.51 "HgN/A
1:50 PM39 °FBroken clouds.8 mph56%30.51 "HgN/A
1:20 PM37 °FPartly sunny.9 mph56%30.51 "HgN/A
12:50 PM37 °FPartly sunny.13 mph60%30.51 "HgN/A
12:20 PM37 °FBroken clouds.15 mph60%30.51 "HgN/A
11:50 AM37 °FBroken clouds.16 mph60%30.51 "HgN/A
11:20 AM36 °FBroken clouds.16 mph70%30.51 "HgN/A
10:50 AM36 °FMore clouds than sun.14 mph75%30.51 "HgN/A
10:20 AM36 °FPartly sunny.15 mph75%30.51 "HgN/A
9:50 AM36 °FMostly cloudy.13 mph75%30.51 "HgN/A
9:20 AM34 °FLight snow. Mostly cloudy.15 mph81%30.48 "HgN/A
8:50 AM36 °FLight snow. Broken clouds.12 mph75%30.48 "Hg6 mi
8:20 AM34 °FBroken clouds.7 mph81%30.48 "HgN/A
7:50 AM34 °FMostly cloudy.8 mph87%30.45 "HgN/A
7:20 AM34 °FOvercast.7 mph93%30.45 "HgN/A
6:50 AM34 °FLight rain. Mostly cloudy.10 mph87%30.45 "Hg3 mi
6:20 AM34 °FOvercast.5 mph93%30.45 "Hg5 mi
5:50 AM34 °FSnow. Mostly cloudy.8 mph87%30.45 "Hg3 mi
Weather by CustomWeather, © 2015

See weather overviewHow to use our weather pages